User: anonymous   Login
Location: Unspecified
(0.0000°N, 0.0000°E)
Time: 02:05:21
(UTC+00:00)
Language:

STARLINK-31084 - Orbit

View from above orbital plane
View from above orbital plane
View from above satellite
View from above satellite

Ground track
Ground track

The orbit is defined by the following mean orbital elements,

1 58630U          26145.61061458 +.00000000 +00000-0 -10155-3 0 00000
2 58630  43.0013 356.2795 0001176 283.6326  76.4395 15.27561166    01
Epoch (UTC): 25 May 2026 14:39:17
Eccentricity: 0.0001176
inclination: 43.0013°
perigee height: 482 km
apogee height: 484 km
right ascension of ascending node: 356.2795°
argument of perigee: 283.6326°
revolutions per day: 15.27561166
mean anomaly at epoch: 76.4395°

The dashed part of the orbit path shows where the satellite is in the earth's shadow,  

DLR